Lapse_Rate
8.5 8.9 8.9 9.3 9.2 9.3 9.4 9.4 9.2 9.2 8.9 9.3 9.5 9.4 9.4 9.7 9.8 9.3 8.4 7.5 7.2 6.3 6.7 9.5 8.1 7.8 9.7 9.7 9.1 8.7 8.6 9.3 9.3 9.3 9.3 9.4 9.5 9.4 9.9 9.7 9.8 9.8 9.7
8.4 8.6 8.8 9.0 9.2 9.2 9.3 9.5 9.5 9.5 9.6 9.7 9.7 9.7 9.6 9.8 9.8 8.6 7.4 7.8 7.4 6.9 6.8 9.2 8.6 8.0 9.8 9.6 8.8 9.2 9.3 9.5 9.6 9.0 9.0 8.3 8.8 9.4 9.7 9.8 9.9 9.7 9.7
8.1 8.5 8.7 8.8 9.0 9.1 9.2 9.4 9.5 9.6 9.6 9.6 9.8 9.8 9.8 9.7 9.6 8.9 8.4 7.8 7.1 7.8 7.3 8.7 9.2 9.2 9.7 9.6 9.4 8.8 9.3 9.1 9.4 8.8 8.4 8.1 7.9 8.6 9.4 9.2 9.7 9.7 9.9
8.4 8.6 8.7 8.8 9.0 9.1 9.3 9.5 9.5 9.6 9.6 9.2 9.5 9.3 9.3 9.1 9.4 9.3 8.8 8.4 8.0 7.1 6.6 8.0 8.5 8.8 8.9 9.6 9.2 9.6 9.5 9.3 9.0 9.4 7.6 7.7 8.5 8.3 8.1 9.2 9.3 9.5 9.6
8.2 8.4 8.7 8.9 9.2 9.2 9.2 9.3 9.5 9.4 9.6 9.2 9.4 9.5 9.2 9.4 9.5 9.2 8.4 8.1 6.9 6.2 7.0 7.4 9.0 9.0 8.1 9.4 9.4 9.6 9.4 8.8 8.7 7.5 8.6 7.8 9.3 9.2 8.6 8.2 8.8 9.5 9.7
8.3 8.6 8.8 8.9 9.1 9.1 9.2 9.3 9.4 9.4 9.5 9.5 9.4 9.3 9.1 9.3 9.2 8.4 8.4 8.4 8.3 5.7 4.5 5.5 7.8 8.9 8.4 9.4 9.6 9.7 9.0 7.4 7.3 7.3 6.9 8.7 8.9 8.8 8.7 8.5 8.6 8.7 9.2
8.1 8.3 8.6 8.8 8.9 8.9 9.0 9.2 9.3 9.3 9.4 9.4 9.3 9.3 9.3 9.2 8.9 8.6 8.3 7.8 6.7 4.5 4.4 5.5 6.8 7.8 8.5 9.5 9.6 9.1 7.5 5.5 6.3 6.5 7.0 8.5 9.4 9.5 9.3 8.9 8.7 8.7 9.2
8.1 8.3 8.6 8.7 8.8 8.8 8.9 9.1 9.1 9.1 9.3 9.3 9.3 9.4 9.3 9.4 8.8 8.7 8.7 7.1 7.0 6.5 5.7 5.1 5.6 6.8 8.4 9.4 9.0 7.8 5.7 5.6 6.1 6.1 6.6 8.9 9.6 9.7 9.6 9.2 8.8 8.3 8.7
8.0 8.3 8.6 8.6 8.7 8.8 9.0 9.0 9.1 9.2 9.3 9.3 9.4 9.2 9.4 9.1 8.5 8.0 8.1 8.0 7.2 6.6 5.6 5.5 5.5 7.0 7.9 8.0 5.3 3.4 2.2 2.8 4.5 5.3 6.0 9.5 9.7 9.7 9.8 9.7 9.5 8.7 8.0
7.9 8.2 8.5 8.5 8.8 9.0 9.1 9.0 9.3 9.3 9.3 9.3 9.2 9.3 9.2 8.5 7.5 5.5 5.9 6.2 6.3 5.6 4.9 5.4 4.8 5.7 4.4 4.1 3.5 2.7 2.8 4.1 5.3 5.8 7.7 9.8 9.7 9.8 9.8 9.8 9.6 9.5 9.0
7.9 8.2 8.5 8.7 8.9 9.0 9.0 9.0 9.2 9.3 9.3 9.4 9.2 9.1 8.9 8.2 7.6 6.0 6.4 6.2 5.3 4.1 3.9 3.9 4.2 3.9 3.0 3.0 2.7 3.1 4.3 4.4 4.7 6.7 9.6 9.5 9.7 9.6 9.7 9.7 9.7 9.5 9.4
8.0 8.3 8.5 8.6 8.7 8.8 9.0 9.0 9.1 9.2 9.3 9.4 9.2 8.4 8.0 6.3 6.0 5.0 3.8 2.8 1.2 2.3 1.3 1.9 2.5 2.8 2.8 2.3 2.7 3.5 4.3 4.7 6.1 8.5 9.7 9.5 9.8 9.5 9.6 9.7 9.5 9.6 9.7
8.0 8.2 8.4 8.5 8.7 8.8 8.9 9.1 9.1 9.2 9.3 9.2 7.4 4.6 3.4 2.6 2.0 1.0 0.7 0.8 1.1 1.8 2.0 2.1 2.0 2.0 2.8 3.8 4.1 4.6 5.8 7.9 9.2 9.7 9.5 9.5 9.6 9.4 9.6 9.6 9.6 9.9 9.8
8.0 8.1 8.3 8.5 8.6 8.8 8.9 9.0 8.2 7.4 6.3 4.3 3.5 2.4 1.7 1.4 0.9 0.7 1.3 1.4 2.3 2.6 2.2 3.1 3.3 4.3 4.6 4.7 5.3 6.4 7.8 9.0 9.6 9.4 9.6 9.6 9.6 9.5 9.6 9.6 9.6 9.8 9.6
7.8 8.0 8.1 8.4 8.6 8.7 8.8 6.7 4.5 3.8 3.5 3.1 2.4 1.9 1.5 1.4 1.7 1.1 1.5 2.1 2.9 3.2 3.6 4.1 4.6 4.5 4.7 5.7 7.2 9.2 8.6 9.4 9.4 9.6 9.8 9.8 9.4 7.6 7.7 9.5 9.5 9.5 9.5
7.7 8.0 8.2 8.3 8.5 8.6 8.5 6.6 5.7 4.4 3.7 3.2 3.0 2.5 2.3 2.2 2.2 2.7 3.1 3.5 3.9 4.5 4.6 4.4 4.3 4.5 6.0 6.5 4.6 6.0 9.0 9.6 9.5 9.4 9.7 9.8 8.4 7.9 5.7 5.3 5.5 7.5 8.6
7.8 8.0 8.2 8.4 8.6 8.7 8.5 7.1 5.7 4.5 4.0 3.7 4.1 4.2 4.2 3.4 3.5 4.0 4.3 4.4 4.2 4.0 4.8 6.5 6.6 7.5 8.8 5.5 5.4 4.2 7.9 8.5 9.5 9.6 9.7 9.8 10.2 8.3 9.9 7.2 4.7 5.2 5.5
8.1 8.3 8.5 8.6 8.9 9.1 8.8 8.1 7.8 6.5 6.5 6.5 6.7 5.8 4.9 5.3 5.2 5.1 4.8 4.5 6.1 7.5 8.4 8.8 9.5 9.6 9.5 5.3 5.1 3.8 7.2 8.6 9.6 9.6 9.8 9.9 9.9 9.9 8.9 9.3 9.4 9.3 8.9
8.5 8.6 8.9 9.0 9.1 9.1 9.2 9.2 9.2 9.2 9.0 8.7 8.5 8.4 6.8 5.8 5.6 5.2 5.8 7.2 7.4 8.9 9.5 9.6 9.5 9.5 9.5 4.2 3.6 4.7 7.7 8.2 8.7 9.5 9.7 9.8 9.8 8.6 6.4 7.7 8.1 8.9 9.3
8.7 8.8 8.9 9.1 9.1 9.1 9.2 9.1 9.0 9.1 8.8 8.5 7.7 7.2 6.7 7.4 8.4 7.9 9.2 9.6 9.6 9.5 9.6 9.4 9.6 6.9 9.3 4.3 4.8 4.6 6.5 6.1 7.4 8.3 9.0 8.0 7.8 6.8 6.7 8.0 8.6 8.6 8.9
8.8 9.0 9.0 8.9 9.1 9.2 9.2 9.0 9.1 9.0 9.3 9.4 8.7 7.8 8.2 9.5 9.6 9.5 9.6 9.5 9.4 9.4 9.1 7.7 8.5 8.5 8.8 8.8 5.4 3.3 5.6 6.4 5.7 6.1 7.0 8.3 7.8 7.6 7.7 7.6 8.5 8.3 8.0
8.7 8.9 8.8 8.9 9.2 9.4 9.3 9.1 9.1 9.4 9.5 9.5 9.3 9.4 9.5 9.6 9.6 9.5 9.5 9.4 9.4 9.1 9.0 8.1 8.5 9.4 9.4 8.3 6.3 6.4 5.8 5.6 6.5 7.0 7.5 7.3 6.5 6.2 6.0 6.6 7.1 7.3 7.5
8.8 9.0 8.9 8.9 9.1 9.3 9.3 9.0 9.2 9.5 9.5 9.4 9.3 9.4 9.4 9.3 9.3 9.3 9.2 9.2 9.3 9.0 8.9 8.7 8.9 9.1 9.5 9.7 6.9 7.0 5.5 5.7 6.1 6.8 6.7 6.3 6.2 6.0 6.1 7.2 6.9 6.5 8.1
8.7 8.9 9.0 8.9 8.8 9.2 9.3 9.4 9.4 9.5 9.4 9.2 9.3 9.3 9.2 8.8 8.6 9.4 9.3 9.3 9.0 8.7 8.4 8.9 8.9 9.1 9.3 9.5 8.1 5.9 6.2 6.7 6.6 6.7 6.7 6.3 6.6 7.6 6.4 6.3 7.5 7.8 7.7
8.9 9.0 8.9 8.8 8.9 9.2 9.3 9.5 9.5 9.5 9.3 9.2 9.2 8.9 7.9 8.5 8.5 8.3 7.7 7.3 5.1 4.3 5.9 7.7 7.6 7.7 7.3 7.7 4.8 5.1 5.8 6.1 6.1 5.9 7.7 9.4 9.2 8.8 8.8 8.6 7.9 8.7 8.8
8.9 8.8 8.8 8.9 9.1 9.2 9.3 9.4 9.6 9.5 9.2 8.9 8.5 6.7 6.9 6.7 8.7 9.2 8.1 3.4 4.7 3.7 3.5 3.2 4.2 5.8 5.0 4.3 4.4 4.9 5.3 5.6 6.6 7.9 9.2 9.0 8.7 8.7 8.7 8.2 8.1 6.8 7.4
Wind_Speed
12 18 17 18 18 17 18 18 17 14 11 9 9 9 9 10 10 12 11 13 14 15 15 12 12 15 9 8 8 6 7 5 3 4 6 6 6 5 5 8 7 7 7
20 17 16 19 21 22 19 17 15 16 13 10 9 8 9 10 10 12 12 14 14 15 16 13 11 14 8 9 9 9 7 5 3 4 3 4 1 6 8 8 7 6 8
18 20 21 21 22 20 19 16 16 15 13 13 9 8 8 8 9 10 6 10 15 16 18 16 14 13 10 9 10 9 10 6 5 2 3 2 4 6 6 8 5 6 5
19 18 20 21 20 19 18 18 17 17 14 11 11 14 11 11 9 8 7 9 16 15 18 15 16 13 11 10 10 9 8 7 7 5 3 4 4 4 5 3 7 8 8
20 21 23 22 21 19 17 18 18 17 15 15 14 12 12 10 9 8 11 11 11 17 13 14 16 11 10 9 10 9 9 5 4 3 2 4 6 9 7 8 8 7 7
19 20 21 22 21 16 17 18 19 19 17 16 17 16 15 14 11 8 7 7 8 8 11 15 14 13 11 8 9 9 8 4 2 2 3 5 6 6 7 8 10 10 9
19 20 20 20 20 22 21 18 20 20 19 18 18 18 17 16 12 11 10 8 9 10 12 13 10 8 11 11 12 7 6 4 3 4 3 7 7 7 7 8 9 10 9
17 21 21 20 21 21 22 21 20 20 20 19 18 16 18 11 9 11 8 7 9 10 12 11 8 8 11 10 8 6 3 4 1 3 5 7 7 6 7 8 8 9 10
12 19 21 20 20 20 20 20 21 20 19 18 15 16 14 15 9 10 10 7 6 6 9 11 7 7 8 11 11 4 5 4 4 5 5 8 8 6 7 7 8 9 10
4 10 14 17 17 18 18 17 19 19 18 17 14 14 14 13 12 8 10 10 9 8 5 3 7 5 11 12 6 5 5 3 2 4 9 10 8 8 7 8 8 9 10
6 5 8 11 15 15 16 17 18 18 17 16 15 12 12 11 10 6 8 8 6 6 6 6 8 11 10 7 5 4 3 3 5 11 12 11 11 8 8 8 9 10 10
2 6 6 7 9 11 12 13 14 15 15 14 13 12 7 6 4 5 6 9 10 11 13 12 10 8 7 6 7 7 5 8 11 13 11 11 9 12 11 9 12 10 11
6 6 7 9 9 10 11 12 11 12 11 10 10 11 10 9 9 9 11 11 11 11 9 10 10 9 8 6 5 6 8 10 11 10 11 12 12 12 10 11 10 10 11
9 8 8 8 9 10 10 9 8 8 10 11 12 11 9 9 9 9 8 8 10 10 10 10 10 8 7 6 7 9 11 11 8 9 12 13 14 14 13 12 13 12 11
8 8 7 9 8 9 10 12 9 9 10 11 11 10 10 10 9 10 9 10 10 10 10 8 7 5 5 5 8 7 9 10 11 12 13 14 14 13 11 11 13 14 12
3 4 6 8 9 8 12 11 10 10 10 11 11 10 11 12 11 11 11 11 10 9 6 5 4 4 4 7 7 7 8 11 12 14 14 15 15 16 18 18 19 17 15
3 4 7 8 9 9 12 13 13 12 12 12 11 12 12 13 13 12 10 9 8 7 6 5 5 7 9 7 4 2 7 10 13 14 14 14 13 12 16 14 22 17 18
7 7 8 9 10 11 13 13 14 14 14 14 14 13 13 13 12 11 9 7 8 7 5 7 5 2 2 7 5 4 8 11 13 14 15 15 16 15 14 15 16 17 17
10 10 11 12 13 13 14 15 14 14 14 14 13 13 13 12 10 8 8 6 6 6 3 1 1 2 2 11 10 8 9 11 13 14 16 17 17 19 15 14 16 18 18
12 13 14 14 13 13 13 14 14 14 13 13 13 12 11 10 8 8 8 5 3 2 1 1 2 3 5 13 11 10 7 10 9 13 15 15 16 19 17 14 15 16 17
14 14 13 12 13 13 13 14 14 14 14 13 12 10 8 7 7 6 4 3 3 1 1 1 3 4 3 3 11 13 7 8 10 11 11 11 18 22 24 17 14 15 14
15 14 13 13 13 14 13 14 14 13 12 12 10 9 8 5 5 5 4 3 1 0 1 0 3 2 3 3 11 10 10 13 10 12 11 14 24 29 30 24 25 23 15
14 13 14 14 13 13 12 13 13 13 12 11 10 9 7 6 4 3 2 1 0 1 1 2 3 3 3 4 9 12 14 14 10 11 16 26 29 30 23 23 22 17 10
15 14 15 14 13 12 12 12 12 11 11 10 9 7 5 4 3 2 2 1 1 1 1 2 3 4 4 5 7 8 10 13 13 14 14 18 20 19 18 16 14 10 9
15 15 14 13 13 12 11 11 10 11 10 9 8 6 5 3 4 3 4 2 6 4 3 3 3 4 4 6 10 11 9 10 13 15 11 10 11 11 11 11 12 10 8
15 14 15 14 13 12 11 10 9 9 9 8 6 4 4 3 1 1 4 6 7 6 5 5 3 3 4 10 15 16 17 19 18 11 9 9 9 10 11 11 12 13 9
Wind_Direction
179 160 163 166 163 171 181 193 178 186 183 190 182 187 192 196 199 175 193 190 200 198 205 200 185 205 196 195 184 188 178 183 188 245 231 212 192 231 250 228 248 271 252
165 185 178 176 184 183 197 190 192 183 196 194 194 198 200 197 203 166 197 201 201 196 204 205 191 201 199 197 192 193 190 200 192 270 271 282 157 219 221 239 252 239 268
189 180 183 197 191 196 198 208 201 200 196 210 189 189 197 209 208 176 182 203 204 205 208 203 197 195 208 195 199 201 205 201 182 234 307 267 270 330 265 200 233 260 261
194 190 192 193 199 205 202 205 206 208 194 208 188 201 203 203 205 186 195 216 212 208 204 207 208 197 200 201 200 206 211 234 187 198 212 260 291 280 298 297 208 218 223
190 195 193 200 201 201 204 202 210 212 200 189 217 197 215 210 208 183 191 191 201 211 205 211 219 208 204 205 199 205 210 188 215 186 233 245 254 248 263 283 290 283 270
196 203 197 197 198 198 200 206 210 210 210 198 204 215 206 224 219 187 185 187 191 198 209 219 209 215 213 212 204 200 194 173 196 171 241 261 269 284 276 276 284 289 292
204 202 203 195 199 197 200 204 205 212 206 210 209 213 217 217 225 196 208 184 203 199 208 210 209 210 213 216 202 181 160 137 192 190 273 260 263 277 280 281 277 280 286
217 212 204 199 200 201 198 203 206 211 206 208 210 212 217 220 215 219 222 198 202 207 203 201 197 205 211 199 159 139 131 127 237 239 249 269 271 257 267 273 283 286 285
231 216 209 206 199 201 198 200 209 209 210 203 207 214 213 218 210 202 218 203 198 192 190 188 189 198 196 134 123 114 110 128 212 241 268 264 266 269 266 271 275 279 283
215 216 220 210 214 202 202 195 211 214 208 197 200 214 212 211 210 196 209 205 207 200 171 165 155 146 110 117 114 123 139 176 240 251 255 249 256 261 260 263 268 268 272
146 190 213 223 210 210 207 195 208 214 210 206 193 204 216 202 202 189 197 208 171 145 116 107 107 118 113 110 115 125 126 190 235 251 249 259 263 265 266 273 272 270 269
152 155 178 191 204 209 208 204 203 212 209 204 189 188 190 162 176 119 104 88 95 100 110 105 107 109 122 142 159 165 202 221 233 242 248 259 255 256 260 264 266 268 272
214 176 170 175 179 183 188 192 190 199 199 192 119 105 100 103 103 104 112 118 124 129 126 127 130 130 153 167 191 209 225 241 245 253 261 266 266 266 264 268 272 271 274
223 219 184 172 167 164 166 157 108 93 94 107 111 107 111 115 117 115 117 115 125 127 128 137 141 151 168 193 213 228 236 241 259 260 262 270 271 270 270 268 269 272 273
226 224 212 161 151 144 143 112 108 106 108 105 107 111 110 111 114 113 113 113 119 126 130 138 151 172 191 219 243 278 280 266 260 260 264 263 259 258 266 272 275 287 291
274 241 206 155 140 132 119 112 110 110 112 112 113 117 118 117 116 116 121 122 125 131 131 126 157 198 234 241 225 250 276 286 283 281 280 278 266 250 230 229 236 246 256
173 167 142 134 139 131 125 126 124 118 114 118 125 123 123 120 121 122 123 125 120 126 151 182 201 219 231 166 139 69 289 283 279 281 283 283 281 278 279 251 232 233 240
141 125 123 127 130 131 123 128 128 130 131 129 124 126 124 124 130 128 125 131 159 177 200 210 198 261 319 110 70 37 293 281 282 284 287 287 288 288 295 295 290 273 252
137 132 131 129 130 132 133 131 132 131 128 128 128 128 130 130 130 135 153 168 190 202 166 152 260 285 303 81 58 353 315 305 304 303 300 302 303 304 331 316 301 291 280
143 140 137 135 133 130 130 132 131 126 125 128 129 128 133 142 147 168 179 141 132 141 141 15 319 58 292 80 59 19 332 318 313 310 307 307 303 303 307 305 298 289 291
144 139 139 137 132 135 136 130 131 130 131 130 129 131 152 143 119 118 127 135 130 90 111 253 339 319 17 44 70 44 345 332 322 307 304 302 307 309 306 299 295 288 299
146 146 138 134 138 141 141 136 130 130 131 130 129 129 117 123 127 138 133 146 133 250 278 24 297 307 329 58 78 34 4 337 313 303 304 304 306 299 293 289 282 278 276
152 148 141 141 144 143 143 135 127 136 138 133 126 121 121 118 114 123 118 175 33 336 10 294 302 299 341 319 78 9 342 316 315 306 303 303 299 296 292 279 265 267 261
155 150 146 146 142 138 132 135 136 136 133 129 125 118 124 111 95 116 67 44 16 351 308 305 314 331 325 331 2 336 325 325 320 320 309 297 290 292 278 276 274 261 251
154 153 149 144 137 131 130 134 135 134 132 130 130 125 121 118 121 81 32 70 66 35 351 17 336 344 318 9 339 324 320 321 315 309 298 308 325 327 329 324 332 298 275
154 150 144 141 135 130 125 126 131 131 135 133 118 101 117 104 54 109 148 88 97 112 99 81 22 343 355 340 328 320 318 315 307 305 310 327 327 328 328 328 328 335 302